Regional Weather Roundup
Issued by NWS

Home | Current Version | Previous Version | Graphics & Text | Print | Product List | Glossary On
Versions: 1 2 3 4 5 6 7 8 9 10 11 12 13 14 15 16 17 18 19 20 21 22 23 24 25 26 27 28 29 30 31 32 33 34 35 36 37 38 39 40 41 42 43 44 45 46 47 48 49 50
000
ASUS43 KLSX 260107
RWRMO

WEATHER SUMMARY FOR MISSOURI
NATIONAL WEATHER SERVICE SPRINGFIELD MO
800 PM CDT WED APR 25 2018

NOTE: "FAIR" INDICATES FEW OR NO CLOUDS BELOW 12,000 FEET WITH NO
       SIGNIFICANT WEATHER AND/OR OBSTRUCTIONS TO VISIBILITY.
       CURRENT SKY AND/OR WEATHER CONDITIONS ARE NOT AVAILABLE FOR
       CHILLICOTHE AND FARMINGTON.

MOZ001>031-035>038-043-044-053-054-260200-
...NORTHERN AND WESTERN MISSOURI...

CITY           SKY/WX    TMP DP  RH WIND       PRES   REMARKS
KANSAS CTY INT MOCLDY    49  46  90 NW3       30.04F
KANSAS C DTWN  CLOUDY    52  47  83 N3        30.04F
LEE`S SUMMIT   CLOUDY    50  49  96 N6        30.04F
ST JOSEPH      CLOUDY    52  41  66 N3        30.06F
CHILLICOTHE      N/A     52  48  86 CALM      30.04F
KIRKSVILLE     CLOUDY    51  48  89 W6        30.01F

$$
MOZ066>068-077>081-088>096-101>105-260200-
...SOUTHWEST MISSOURI...

CITY           SKY/WX    TMP DP  RH WIND       PRES   REMARKS
SPRINGFIELD    LGT RAIN  52  50  93 N7        29.98S FOG
JOPLIN         LGT RAIN  52  51  97 CALM      29.98F
BRANSON        CLOUDY    50  50 100 CALM      29.99S FOG

$$
MOZ032>034-039>042-045>050-055>058-069>072-260200-
...CENTRAL MISSOURI...

CITY           SKY/WX    TMP DP  RH WIND       PRES   REMARKS
COLUMBIA       LGT RAIN  52  48  86 NW6       30.01F
JEFFERSON CITY LGT RAIN  52  49  89 NW6       30.01F
ROLLA          LGT RAIN  50  48  93 NW7       30.00F FOG
SEDALIA        LGT RAIN  50  50 100 NW5       30.03F
WHITEMAN AFB   DRIZZLE   49  48  96 NE3       29.99F
WARRENSBURG    DRIZZLE   48  46  93 N5        30.03F
OSAGE BEACH    LGT RAIN  50  49  96 CALM      30.02F FOG

$$
MOZ051-052-059>065-260200-
...EAST CENTRAL MISSOURI...

CITY           SKY/WX    TMP DP  RH WIND       PRES   REMARKS
ST LOUIS INTL  CLOUDY    61  49  64 NW6       29.96F
SPIRIT OF STL  CLOUDY    60  50  69 W5        29.96S
ST CHARLES     CLOUDY    62  48  60 NW8       29.95F

$$
MOZ072>076-082>087-097>100-106>115-260200-
...SOUTH CENTRAL AND SOUTHEAST MISSOURI...

CITY           SKY/WX    TMP DP  RH WIND       PRES   REMARKS
CAPE GIRARDEAU CLOUDY    62  52  69 W10       29.92S
FARMINGTON     LGT RAIN  58  47  66 NW8       29.97R
POPLAR BLUFF   CLOUDY    61  48  62 W6        29.95F
WEST PLAINS    CLOUDY    54  51  90 N5        29.98F

$$



USA.gov is the U.S. government's official web portal to all federal, state and local government web resources and services.